TimeMST,TemperatureF,Dew PointF,Humidity,Sea Level PressureIn,VisibilityMPH,Wind Direction,Wind SpeedMPH,Gust SpeedMPH,PrecipitationIn,Events,Conditions,WindDirDegrees,DateUTC
1:53 AM,27.0,21.9,81,29.87,7.0,ENE,3.5,-,0.00,Snow,Light Snow,60,2013-02-22 08:53:00
2:10 AM,26.6,23.0,86,29.88,9.0,ENE,4.6,-,0.00,Snow,Light Snow,60,2013-02-22 09:10:00
2:44 AM,26.6,21.2,80,29.88,8.0,NE,3.5,-,0.00,Snow,Light Snow,40,2013-02-22 09:44:00
2:53 AM,26.1,21.9,84,29.88,10.0,NE,3.5,-,0.00,,Overcast,50,2013-02-22 09:53:00
3:34 AM,26.6,23.0,86,29.87,9.0,NE,3.5,-,N/A,,Overcast,50,2013-02-22 10:34:00
3:45 AM,26.6,23.0,86,29.87,2.0,ENE,4.6,-,0.00,Snow,Light Snow,60,2013-02-22 10:45:00
3:51 AM,26.6,23.0,86,29.87,3.0,NE,4.6,-,0.00,Snow,Light Snow,50,2013-02-22 10:51:00
3:53 AM,26.1,23.0,88,29.88,3.0,NE,4.6,-,0.00,Snow,Light Snow,50,2013-02-22 10:53:00
3:57 AM,26.6,23.0,86,29.87,2.5,NE,6.9,-,0.00,Snow,Light Snow,50,2013-02-22 10:57:00
4:02 AM,26.6,21.2,80,29.87,1.8,NE,5.8,-,0.00,Snow,Light Snow,50,2013-02-22 11:02:00
4:09 AM,26.6,21.2,80,29.87,2.5,NE,4.6,-,0.00,Snow,Light Snow,50,2013-02-22 11:09:00
4:19 AM,26.6,23.0,86,29.88,4.0,NNE,3.5,-,0.00,Snow,Light Snow,30,2013-02-22 11:19:00
4:53 AM,26.1,23.0,88,29.88,10.0,Calm,Calm,-,0.00,,Overcast,0,2013-02-22 11:53:00
5:00 AM,26.6,23.0,86,29.89,10.0,Calm,Calm,-,N/A,,Overcast,0,2013-02-22 12:00:00
5:53 AM,27.0,23.0,85,29.90,5.0,Calm,Calm,-,0.00,Snow,Light Snow,0,2013-02-22 12:53:00
5:59 AM,26.6,23.0,86,29.90,2.0,NW,3.5,-,0.00,Snow,Light Snow,310,2013-02-22 12:59:00
6:03 AM,26.6,23.0,86,29.90,1.2,NW,3.5,-,0.01,Snow,Light Snow,320,2013-02-22 13:03:00
6:07 AM,26.6,24.8,93,29.90,0.8,NW,4.6,-,0.01,Snow,Light Snow,310,2013-02-22 13:07:00
6:18 AM,26.6,24.8,93,29.90,0.5,West,3.5,-,0.03,Fog-Snow,Snow,280,2013-02-22 13:18:00
6:27 AM,26.6,23.0,86,29.90,0.2,Calm,Calm,-,0.05,Fog-Snow,Heavy Snow,0,2013-02-22 13:27:00
6:53 AM,26.1,23.0,88,29.92,2.0,Calm,Calm,-,0.06,Snow,Light Snow,0,2013-02-22 13:53:00
6:57 AM,26.6,23.0,86,29.90,3.0,Calm,Calm,-,0.00,Snow,Light Snow,0,2013-02-22 13:57:00
7:17 AM,24.8,21.2,86,29.91,2.0,Calm,Calm,-,0.00,Snow,Light Snow,0,2013-02-22 14:17:00
7:19 AM,24.8,23.0,93,29.91,1.5,Calm,Calm,-,0.00,Snow,Light Snow,0,2013-02-22 14:19:00
7:23 AM,24.8,23.0,93,29.91,0.8,Calm,Calm,-,0.00,Snow,Light Snow,0,2013-02-22 14:23:00
7:37 AM,26.6,23.0,86,29.92,1.2,SE,3.5,-,0.00,Snow,Light Snow,130,2013-02-22 14:37:00
7:51 AM,26.6,23.0,86,29.92,2.5,SE,4.6,-,0.00,Snow,Light Snow,140,2013-02-22 14:51:00
7:53 AM,26.1,23.0,88,29.95,4.0,SE,3.5,-,0.00,Snow,Light Snow,130,2013-02-22 14:53:00
8:12 AM,26.6,23.0,86,29.93,2.0,Calm,Calm,-,0.00,Snow,Light Snow,0,2013-02-22 15:12:00
8:16 AM,26.6,23.0,86,29.93,1.2,Calm,Calm,-,0.00,Snow,Light Snow,0,2013-02-22 15:16:00
8:20 AM,26.6,24.8,93,29.93,1.8,Calm,Calm,-,0.00,Snow,Light Snow,0,2013-02-22 15:20:00
8:22 AM,26.6,24.8,93,29.94,2.0,Calm,Calm,-,0.00,Snow,Light Snow,0,2013-02-22 15:22:00
8:33 AM,26.6,23.0,86,29.94,0.5,Calm,Calm,-,0.00,Fog-Snow,Snow,0,2013-02-22 15:33:00
8:38 AM,26.6,23.0,86,29.94,1.5,Calm,Calm,-,0.00,Snow,Light Snow,0,2013-02-22 15:38:00
8:40 AM,26.6,23.0,86,29.94,3.0,Calm,Calm,-,0.00,Snow,Light Snow,0,2013-02-22 15:40:00
8:53 AM,26.1,21.9,84,29.98,10.0,Calm,Calm,-,0.00,,Overcast,0,2013-02-22 15:53:00
9:53 AM,28.0,19.0,69,29.99,10.0,North,5.8,-,0.00,,Overcast,350,2013-02-22 16:53:00
10:09 AM,26.6,19.4,74,29.97,2.0,NNW,9.2,-,0.00,Snow,Light Snow,330,2013-02-22 17:09:00
10:11 AM,26.6,19.4,74,29.97,1.2,NNW,8.1,-,0.00,Snow,Light Snow,330,2013-02-22 17:11:00
10:35 AM,24.8,19.4,80,29.97,1.5,NW,5.8,-,0.00,Snow,Light Snow,320,2013-02-22 17:35:00
10:40 AM,24.8,19.4,80,29.97,0.8,NW,4.6,-,0.00,Snow,Light Snow,320,2013-02-22 17:40:00
10:58 AM,24.8,21.2,86,29.97,1.0,Calm,Calm,-,0.00,Snow,Light Snow,0,2013-02-22 17:58:00
11:01 AM,24.8,21.2,86,29.97,2.0,SE,3.5,-,0.00,Snow,Light Snow,140,2013-02-22 18:01:00
11:08 AM,24.8,21.2,86,29.98,9.0,SE,6.9,-,0.00,,Overcast,140,2013-02-22 18:08:00
11:17 AM,26.6,21.2,80,29.98,9.0,SE,5.8,-,0.00,Snow,Light Snow,130,2013-02-22 18:17:00
11:53 AM,28.0,19.9,72,30.02,10.0,SW,3.5,-,0.00,,Overcast,230,2013-02-22 18:53:00
12:53 PM,30.9,19.9,64,29.98,10.0,Calm,Calm,-,N/A,,Overcast,0,2013-02-22 19:53:00
1:48 PM,26.6,19.4,74,29.94,2.0,WNW,13.8,21.9,0.00,Snow,Light Snow,290,2013-02-22 20:48:00
1:53 PM,28.0,19.9,72,29.97,2.0,West,11.5,21.9,0.00,Snow,Light Snow,280,2013-02-22 20:53:00
1:55 PM,28.4,19.4,69,29.94,2.5,West,11.5,-,0.00,Snow,Light Snow,280,2013-02-22 20:55:00
2:02 PM,28.4,19.4,69,29.94,4.0,West,10.4,-,0.00,Snow,Light Snow,280,2013-02-22 21:02:00
2:22 PM,26.6,21.2,80,29.94,2.5,West,12.7,-,0.00,Snow,Light Snow,260,2013-02-22 21:22:00
2:24 PM,26.6,21.2,80,29.94,1.2,West,9.2,17.3,0.00,Snow,Light Snow,260,2013-02-22 21:24:00
2:32 PM,28.4,19.4,69,29.94,1.5,Variable,3.5,-,0.00,Snow,Light Snow,0,2013-02-22 21:32:00
2:34 PM,28.4,21.2,74,29.94,4.0,Variable,3.5,-,0.00,Snow,Light Snow,0,2013-02-22 21:34:00
2:53 PM,30.0,19.9,66,29.97,10.0,SSW,9.2,-,0.00,,Overcast,210,2013-02-22 21:53:00
3:34 PM,28.4,19.4,69,29.95,10.0,WNW,15.0,-,N/A,,Overcast,290,2013-02-22 22:34:00
3:53 PM,30.9,17.1,57,29.98,10.0,NW,9.2,-,N/A,,Overcast,310,2013-02-22 22:53:00
4:53 PM,32.0,10.9,42,29.98,10.0,NW,16.1,25.3,N/A,,Scattered Clouds,320,2013-02-22 23:53:00
5:53 PM,28.0,14.0,56,30.02,10.0,NNW,9.2,-,N/A,,Clear,340,2013-02-23 00:53:00
6:53 PM,26.1,14.0,60,30.06,10.0,NNW,4.6,-,N/A,,Clear,340,2013-02-23 01:53:00
7:53 PM,21.9,12.9,68,30.09,10.0,NNW,5.8,-,N/A,,Clear,340,2013-02-23 02:53:00
8:53 PM,19.9,12.0,71,30.12,10.0,ENE,4.6,-,N/A,,Clear,60,2013-02-23 03:53:00
9:53 PM,16.0,10.0,77,30.14,10.0,ENE,6.9,-,N/A,,Clear,60,2013-02-23 04:53:00
10:53 PM,14.0,9.0,80,30.16,10.0,East,5.8,-,N/A,,Clear,80,2013-02-23 05:53:00
11:53 PM,12.9,8.1,81,30.15,10.0,ENE,6.9,-,N/A,,Clear,70,2013-02-23 06:53:00